Weather Roundup
Issued by NWS Corpus Christi, TX

Home | Current Version | Previous Version | Text Only | Print | Product List | Glossary On
Versions: 1 2 3 4 5 6 7 8 9 10 11 12 13 14 15 16 17 18 19 20 21 22 23 24 25 26 27 28 29 30 31 32 33 34 35 36 37 38 39 40 41 42 43 44 45 46 47 48 49 50
000
ASUS44 KCRP 310110
HRRCRP

SOUTH TEXAS REGIONAL WEATHER ROUNDUP
NATIONAL WEATHER SERVICE CORPUS CHRISTI TX
700 PM CST FRI JAN 30 2015


TXZ229>244-310200-
...CORPUS CHRISTI AREA OBSERVATIONS...

CITY           SKY/WX    TMP DP  RH WIND       PRES   REMARKS
CORPUS CHRISTI CLOUDY    57  52  83 E18       30.25S
NAS CORPUS CHR CLOUDY    57  54  89 NE18      30.24F
ROCKPORT       CLOUDY    57  52  83 E18       30.26R
KINGSVILLE NAS CLOUDY    59  55  87 E12       30.25R
ALICE          CLOUDY    59  53  80 E12       30.24S
FALFURRIAS     CLOUDY    61  55  80 NE10      30.23S
$$

...VICTORIA AREA OBSERVATIONS...

CITY           SKY/WX    TMP DP  RH WIND       PRES   REMARKS
VICTORIA       MOCLDY    56  49  77 E9        30.29S
BEEVILLE       FAIR      58  50  76 E9        30.26R
PLEASANTON     CLOUDY    56  42  60 NE8       30.28R
SAN ANTONIO    MOCLDY    53  40  61 NE7       30.28R
$$

...LAREDO AREA OBSERVATIONS...

CITY           SKY/WX    TMP DP  RH WIND       PRES   REMARKS
LAREDO         CLOUDY    66  51  58 E13       30.21S
DEL RIO        CLOUDY    58  39  49 S3        30.20S
MCALLEN        CLOUDY    68  60  75 E14       30.19S
HEBBRONVILLE   MOCLDY    60  52  74 E12       30.23R
$$

...OTHER TEXAS OBSERVATIONS...

CITY           SKY/WX    TMP DP  RH WIND       PRES   REMARKS
BROWNSVILLE    MOCLDY    66  60  81 E10       30.20S
HOUSTON        CLOUDY    56  36  47 NE5       30.31R
COL. STATION   PTCLDY    54  34  46 NE3       30.31S
AUSTIN         MOCLDY    53  39  59 E7        30.29S
WACO           CLOUDY    51  34  52 E3        30.31F
FORT WORTH     CLOUDY    54  29  38 E7        30.32F
WICHITA FALLS  CLOUDY    47  34  60 NE6       30.32S
LUBBOCK        CLOUDY    41  29  62 E13       30.23F
EL PASO        LGT RAIN  46  41  82 E6        30.05R
$$

...MARINE OBSERVATIONS...

STATION/POSITION TIME  SKY/WX   TEMP    WIND        PRES    VSBY  WAVE   SWELL
                                AIR SEA DIR/SP/G                  HT/PER HT/PER
                 (UTC)          (F)     (DEG/KT/KT) (MB)    (MI)  (FT/S) (FT/S)
PORT ARANSAS     0100            56 60   50/ 22/ 25 1024.4F
BUOY 90 E PORT A 0100            61 68   60/ 16/ 19 1024.7F         5/ 7
BUOY 45 SE BAFFI 0100            67 69   90/ 17/ 19 1022.8R         5/ 7
BUOY 200 E PT IS 0100            69 72   60/ 14/ 17 1023.2R         2/ 4
BUOY 15 E GALVES 0100            55 57   80/ 14/ 17 1025.7R         3/ 5
$$


USA.gov is the U.S. government's official web portal to all federal, state and local government web resources and services.